K6OUA-11 Weather Reports


Display with metric or nautical units.
time (UTC)temp
F
wind
direction
speed
MPH
gust
MPH
rain 1hr
in
rain 24hr
in
rain mn
in
humidity
%
barometer
mb
20180817131441 62 36 0.0 1.0 0.00 0.00 0.00 94 1011.8
20180817131256 62 225 0.0 0.0 0.00 0.00 0.00 93 1011.7
20180817131141 62 45 1.0 1.0 0.00 0.00 0.00 93 1011.8
20180817130839 62 225 0.0 0.0 0.00 0.00 0.00 93 1011.7
20180817130537 62 270 0.0 0.0 0.00 0.00 0.00 93 1011.7
20180817130516 62 225 0.0 0.0 0.00 0.00 0.00 93 1011.6
20180817130235 62 225 0.0 0.0 0.00 0.00 0.00 93 1011.6
20180817125936 62 225 0.0 0.0 0.00 0.00 0.00 93 1011.6
20180817125635 63 225 0.0 1.0 0.00 0.00 0.00 93 1011.7
20180817125604 63 180 0.0 1.0 0.00 0.00 0.00 93 1011.6
20180817125334 63 180 0.0 1.0 0.00 0.00 0.00 93 1011.6
20180817125321 63 180 1.0 1.0 0.00 0.00 0.00 94 1012.0
20180817125031 63 180 1.0 1.0 0.00 0.00 0.00 94 1012.0
20180817125026 63 225 0.0 0.0 0.00 0.00 0.00 93 1011.7
20180817124745 63 225 0.0 0.0 0.00 0.00 0.00 93 1011.9
20180817124730 63 225 0.0 0.0 0.00 0.00 0.00 93 1011.7
20180817124529 63 270 0.0 0.0 0.00 0.00 0.00 93 1011.7
20180817124429 63 225 0.0 0.0 0.00 0.00 0.00 93 1011.9
20180817124257 63 225 0.0 0.0 0.00 0.00 0.00 93 1011.6
20180817124129 63 270 0.0 0.0 0.00 0.00 0.00 93 1011.7
20180817123828 63 225 0.0 0.0 0.00 0.00 0.00 93 1011.6
20180817123746 63 247 0.0 0.0 0.00 0.00 0.00 93 1011.6
20180817123527 63 247 0.0 0.0 0.00 0.00 0.00 93 1011.6
20180817123226 63 225 0.0 0.0 0.00 0.00 0.00 94 1011.5
20180817123206 63 225 0.0 2.0 0.00 0.00 0.00 94 1011.7
20180817122923 63 225 0.0 2.0 0.00 0.00 0.00 94 1011.7
20180817122624 63 263 0.0 2.0 0.00 0.00 0.00 93 1011.6
20180817122523 63 270 1.0 3.0 0.00 0.00 0.00 93 1011.4
20180817122321 63 270 1.0 3.0 0.00 0.00 0.00 93 1011.4
20180817122022 63 272 2.0 3.0 0.00 0.00 0.00 93 1011.4
20180817121725 63 225 0.0 0.0 0.00 0.00 0.00 93 1011.4
20180817121419 63 225 0.0 0.0 0.00 0.00 0.00 93 1011.4
20180817120817 63 225 0.0 1.0 0.00 0.00 0.00 93 1011.6
20180817120538 63 225 0.0 0.0 0.00 0.00 0.00 92 1011.6
20180817120517 63 225 0.0 0.0 0.00 0.00 0.00 93 1011.7
20180817120213 63 225 0.0 0.0 0.00 0.00 0.00 92 1011.6
20180817115905 63 225 0.0 0.0 0.00 0.00 0.00 92 1011.5
20180817115611 63 225 0.0 0.0 0.00 0.00 0.00 92 1011.5
20180817115532 63 225 0.0 0.0 0.00 0.00 0.00 93 1011.1
20180817115310 63 225 0.0 0.0 0.00 0.00 0.00 93 1011.1
20180817114926 63 238 0.0 0.0 0.00 0.00 0.00 93 1011.2
20180817114708 63 225 0.0 0.0 0.00 0.00 0.00 93 1011.4
20180817114429 63 225 0.0 1.0 0.00 0.00 0.00 93 1011.7
20180817114407 63 225 0.0 0.0 0.00 0.00 0.00 93 1011.4
20180817114105 63 225 0.0 1.0 0.00 0.00 0.00 93 1011.7
20180817114040 63 225 1.0 1.0 0.00 0.00 0.00 92 1011.6
20180817113806 63 225 1.0 1.0 0.00 0.00 0.00 92 1011.6
20180817113546 63 225 0.0 0.0 0.00 0.00 0.00 92 1011.1
20180817113505 63 225 0.0 0.0 0.00 0.00 0.00 92 1011.3
20180817113204 63 225 0.0 0.0 0.00 0.00 0.00 92 1011.1
20180817112901 63 225 0.0 0.0 0.00 0.00 0.00 92 1011.2
20180817112817 63 225 0.0 0.0 0.00 0.00 0.00 93 1011.3
20180817112600 63 225 0.0 0.0 0.00 0.00 0.00 93 1011.3
20180817112518 63 225 0.0 0.0 0.00 0.00 0.00 92 1011.3
20180817112300 63 225 0.0 0.0 0.00 0.00 0.00 92 1011.3
20180817111958 64 225 0.0 0.0 0.00 0.00 0.00 92 1011.4
20180817111946 64 225 0.0 0.0 0.00 0.00 0.00 92 1011.5
20180817111657 64 225 0.0 0.0 0.00 0.00 0.00 92 1011.5
20180817111357 64 225 0.0 0.0 0.00 0.00 0.00 92 1011.5
20180817111355 64 225 0.0 0.0 0.00 0.00 0.00 93 1011.4
20180817111055 64 225 0.0 0.0 0.00 0.00 0.00 93 1011.4
20180817110801 64 270 1.0 1.0 0.00 0.00 0.00 93 1011.2
20180817110755 64 225 0.0 1.0 0.00 0.00 0.00 93 1011.4
20180817110452 64 270 1.0 1.0 0.00 0.00 0.00 93 1011.2
20180817110153 64 270 1.0 2.0 0.00 0.00 0.00 93 1011.2
20180817110140 64 270 2.0 2.0 0.00 0.00 0.00 93 1011.2
20180817105850 64 270 2.0 2.0 0.00 0.00 0.00 93 1011.2
20180817105550 64 270 1.0 2.0 0.00 0.00 0.00 93 1011.3
20180817105518 63 270 1.0 2.0 0.00 0.00 0.00 92 1011.0
20180817105249 63 270 1.0 2.0 0.00 0.00 0.00 92 1011.0
20180817105203 64 312 2.0 2.0 0.00 0.00 0.00 92 1011.3
20180817104947 64 312 2.0 2.0 0.00 0.00 0.00 92 1011.3
20180817104648 64 270 0.0 0.0 0.00 0.00 0.00 93 1011.5
20180817104415 64 225 0.0 0.0 0.00 0.00 0.00 92 1011.2
20180817104044 64 225 0.0 0.0 0.00 0.00 0.00 92 1011.2
20180817103953 64 225 0.0 0.0 0.00 0.00 0.00 92 1011.2
20180817103742 64 225 0.0 0.0 0.00 0.00 0.00 92 1011.2
20180817103443 64 225 0.0 0.0 0.00 0.00 0.00 92 1011.2
20180817103416 64 225 0.0 0.0 0.00 0.00 0.00 92 1011.2
20180817103140 64 225 0.0 0.0 0.00 0.00 0.00 92 1011.2
20180817103132 64 225 0.0 0.0 0.00 0.00 0.00 92 1011.3
20180817102840 64 225 0.0 0.0 0.00 0.00 0.00 92 1011.3
20180817102753 64 225 0.0 0.0 0.00 0.00 0.00 91 1011.2
20180817102539 64 225 0.0 0.0 0.00 0.00 0.00 92 1011.2
20180817102237 64 225 0.0 0.0 0.00 0.00 0.00 92 1011.2
20180817101911 64 225 0.0 1.0 0.00 0.00 0.00 92 1011.3
20180817101636 64 225 0.0 1.0 0.00 0.00 0.00 92 1011.3
20180817101603 64 270 1.0 1.0 0.00 0.00 0.00 92 1011.3
20180817101336 64 270 1.0 1.0 0.00 0.00 0.00 93 1011.2
20180817101333 64 270 1.0 1.0 0.00 0.00 0.00 92 1011.3
20180817101032 64 270 1.0 1.0 0.00 0.00 0.00 93 1011.2
20180817101021 64 270 1.0 1.0 0.00 0.00 0.00 92 1011.3
20180817100733 64 270 1.0 1.0 0.00 0.00 0.00 92 1011.3
20180817100636 64 270 0.0 1.0 0.00 0.00 0.00 92 1011.3
20180817100431 64 270 0.0 1.0 0.00 0.00 0.00 92 1011.3
20180817100131 64 270 2.0 3.0 0.00 0.00 0.00 92 1011.1
20180817100029 64 312 2.0 2.0 0.00 0.00 0.00 91 1011.3
20180817095828 64 312 2.0 2.0 0.00 0.00 0.00 91 1011.3
20180817095530 64 240 0.0 0.0 0.00 0.00 0.00 91 1011.3
20180817095227 64 225 0.0 1.0 0.00 0.00 0.00 91 1011.2
20180817095125 64 258 0.0 0.0 0.00 0.00 0.00 91 1011.2
20180817094925 64 258 0.0 0.0 0.00 0.00 0.00 91 1011.2
20180817094902 64 270 0.0 2.0 0.00 0.00 0.00 91 1011.4
20180817094623 64 270 0.0 2.0 0.00 0.00 0.00 91 1011.4
20180817094334 64 225 0.0 0.0 0.00 0.00 0.00 90 1011.4
20180817094016 64 225 0.0 0.0 0.00 0.00 0.00 90 1011.4
20180817093718 64 225 0.0 0.0 0.00 0.00 0.00 90 1011.3
20180817093113 64 225 0.0 0.0 0.00 0.00 0.00 90 1011.3
20180817093032 64 225 0.0 0.0 0.00 0.00 0.00 90 1011.3
20180817092832 65 225 0.0 0.0 0.00 0.00 0.00 90 1011.3
20180817092812 64 225 0.0 0.0 0.00 0.00 0.00 90 1011.3
20180817092511 65 225 0.0 0.0 0.00 0.00 0.00 90 1011.3
20180817092429 65 225 0.0 1.0 0.00 0.00 0.00 90 1011.5
20180817092212 65 225 0.0 1.0 0.00 0.00 0.00 90 1011.3
20180817092210 65 225 0.0 1.0 0.00 0.00 0.00 90 1011.5
20180817091910 65 225 0.0 1.0 0.00 0.00 0.00 90 1011.3
20180817091800 65 225 0.0 1.0 0.00 0.00 0.00 90 1011.3
20180817091607 65 225 0.0 1.0 0.00 0.00 0.00 90 1011.3
20180817091601 65 225 0.0 0.0 0.00 0.00 0.00 90 1011.3
20180817091309 65 225 0.0 0.0 0.00 0.00 0.00 90 1011.3
20180817091306 65 225 0.0 0.0 0.00 0.00 0.00 90 1011.3
20180817091005 65 225 0.0 0.0 0.00 0.00 0.00 90 1011.3
20180817090957 65 225 0.0 0.0 0.00 0.00 0.00 90 1011.3
20180817090706 65 225 0.0 0.0 0.00 0.00 0.00 90 1011.4
20180817090704 65 225 0.0 0.0 0.00 0.00 0.00 90 1011.3
20180817090406 65 225 0.0 1.0 0.00 0.00 0.00 90 1011.4
20180817090404 65 225 0.0 0.0 0.00 0.00 0.00 90 1011.4
20180817090105 65 225 0.0 2.0 0.00 0.00 0.00 90 1011.5
20180817085907 65 258 2.0 2.0 0.00 0.00 0.00 90 1011.5
20180817085802 65 225 0.0 2.0 0.00 0.00 0.00 90 1011.5
20180817085502 65 258 2.0 2.0 0.00 0.00 0.00 90 1011.5
20180817085201 65 249 1.0 2.0 0.00 0.00 0.00 90 1011.5
20180817085141 65 267 1.0 2.0 0.00 0.00 0.00 90 1011.7
20180817084858 65 267 1.0 2.0 0.00 0.00 0.00 90 1011.7
20180817084839 66 240 1.0 1.0 0.00 0.00 0.00 90 1011.6
20180817084556 66 240 1.0 1.0 0.00 0.00 0.00 90 1011.6
20180817084529 66 243 1.0 1.0 0.00 0.00 0.00 89 1011.7
20180817084306 66 261 1.0 3.0 0.00 0.00 0.00 90 1011.7
20180817084255 66 243 1.0 1.0 0.00 0.00 0.00 89 1011.7
20180817083955 66 261 1.0 3.0 0.00 0.00 0.00 90 1011.7
20180817083842 66 261 2.0 4.0 0.00 0.00 0.00 90 1011.6
20180817083653 66 270 2.0 3.0 0.00 0.00 0.00 90 1011.6
20180817083352 66 270 2.0 3.0 0.00 0.00 0.00 90 1011.6
20180817083310 66 270 2.0 3.0 0.00 0.00 0.00 89 1011.7
20180817083051 66 270 2.0 3.0 0.00 0.00 0.00 89 1011.7
20180817083026 66 265 1.0 3.0 0.00 0.00 0.00 89 1011.7
20180817082738 66 265 1.0 3.0 0.00 0.00 0.00 89 1011.7
20180817082450 66 265 1.0 3.0 0.00 0.00 0.00 89 1011.7
20180817082439 66 270 2.0 2.0 0.00 0.00 0.00 89 1011.7
20180817082148 66 270 2.0 2.0 0.00 0.00 0.00 89 1011.7
20180817082139 66 231 1.0 1.0 0.00 0.00 0.00 89 1011.6
20180817081847 66 231 1.0 1.0 0.00 0.00 0.00 89 1011.6
20180817081745 66 231 1.0 2.0 0.00 0.00 0.00 89 1011.6
20180817081547 66 231 1.0 2.0 0.00 0.00 0.00 89 1011.6
20180817081449 66 231 1.0 2.0 0.00 0.00 0.00 89 1011.7
20180817081253 66 252 1.0 4.0 0.00 0.00 0.00 89 1011.6
20180817081244 66 231 1.0 2.0 0.00 0.00 0.00 89 1011.7
20180817080943 66 252 1.0 4.0 0.00 0.00 0.00 89 1011.6
20180817080643 66 272 3.0 4.0 0.00 0.00 0.00 88 1011.7
20180817080341 66 272 3.0 4.0 0.00 0.00 0.00 88 1011.7
20180817075745 66 225 0.0 2.0 0.00 0.00 0.00 88 1011.9
20180817075438 66 225 0.0 2.0 0.00 0.00 0.00 88 1011.9
20180817075409 66 270 2.0 2.0 0.00 0.00 0.00 88 1011.9
20180817075138 66 270 2.0 2.0 0.00 0.00 0.00 88 1011.9
20180817075054 66 227 0.0 0.0 0.00 0.00 0.00 88 1011.9
20180817074839 66 225 0.0 0.0 0.00 0.00 0.00 88 1012.0
20180817074837 66 227 0.0 0.0 0.00 0.00 0.00 88 1011.9
20180817074536 66 225 0.0 0.0 0.00 0.00 0.00 88 1012.0
20180817074438 66 225 0.0 1.0 0.00 0.00 0.00 88 1011.9
20180817074344 66 270 1.0 1.0 0.00 0.00 0.00 88 1011.7
20180817074233 66 225 0.0 1.0 0.00 0.00 0.00 88 1011.9
20180817073932 66 270 1.0 1.0 0.00 0.00 0.00 88 1011.7
20180817073633 66 225 0.0 3.0 0.00 0.00 0.00 88 1011.9
20180817073330 66 225 1.0 4.0 0.00 0.00 0.00 88 1011.8
20180817073031 66 261 2.0 4.0 0.00 0.00 0.00 88 1011.8
20180817073020 66 279 3.0 3.0 0.00 0.00 0.00 88 1011.9
20180817072729 66 279 3.0 3.0 0.00 0.00 0.00 88 1011.9
20180817072500 66 272 2.0 3.0 0.00 0.00 0.00 87 1011.8
20180817072428 66 274 1.0 2.0 0.00 0.00 0.00 88 1011.9
20180817072126 66 272 2.0 3.0 0.00 0.00 0.00 87 1011.8
20180817071826 66 270 2.0 2.0 0.00 0.00 0.00 87 1011.8
20180817071824 66 270 2.0 2.0 0.00 0.00 0.00 87 1011.8
20180817071756 66 270 1.0 1.0 0.00 0.00 0.00 87 1011.9
20180817071523 66 270 1.0 1.0 0.00 0.00 0.00 87 1011.9
20180817071430 66 225 0.0 0.0 0.00 0.00 0.00 86 1012.0
20180817071222 66 225 0.0 0.0 0.00 0.00 0.00 86 1012.0
20180817070923 66 225 0.0 0.0 0.00 0.00 0.00 86 1012.0
20180817070622 66 225 0.0 0.0 0.00 0.00 0.00 86 1011.9
20180817070019 66 225 0.0 0.0 0.00 0.00 0.00 86 1011.9
20180817065733 66 225 0.0 1.0 0.00 0.00 0.00 86 1011.8
20180817065718 66 225 0.0 0.0 0.00 0.00 0.00 86 1012.0
20180817065417 66 225 0.0 1.0 0.00 0.00 0.00 86 1011.8
20180817065122 66 225 0.0 0.0 0.00 0.00 0.00 85 1011.8
20180817064813 66 225 0.0 0.0 0.00 0.00 0.00 85 1011.8
20180817064645 67 225 0.0 1.0 0.00 0.00 0.00 85 1011.7
20180817064514 67 225 0.0 1.0 0.00 0.00 0.00 85 1011.8
20180817064401 67 225 0.0 1.0 0.00 0.00 0.00 85 1011.7
20180817064212 67 225 0.0 1.0 0.00 0.00 0.00 85 1011.7
20180817064101 67 225 1.0 1.0 0.00 0.00 0.00 85 1011.8
20180817063912 67 225 0.0 1.0 0.00 0.00 0.00 85 1011.7
20180817063609 67 225 1.0 1.0 0.00 0.00 0.00 85 1011.8
20180817063340 67 225 0.0 0.0 0.00 0.00 0.00 85 1011.8
20180817063007 67 225 0.0 0.0 0.00 0.00 0.00 85 1011.8
20180817062731 67 270 4.0 4.0 0.00 0.00 0.00 85 1011.7
20180817062707 67 270 1.0 4.0 0.00 0.00 0.00 86 1011.7
20180817062406 67 270 4.0 4.0 0.00 0.00 0.00 85 1011.7
20180817062344 67 270 2.0 2.0 0.00 0.00 0.00 85 1011.8
20180817062122 67 270 2.0 2.0 0.00 0.00 0.00 85 1011.9
20180817062103 67 270 2.0 2.0 0.00 0.00 0.00 85 1011.8
20180817061803 67 270 2.0 2.0 0.00 0.00 0.00 85 1011.9
20180817061748 67 270 0.0 1.0 0.00 0.00 0.00 85 1011.8
20180817061507 67 225 0.0 0.0 0.00 0.00 0.00 83 1011.9
20180817061501 67 270 0.0 1.0 0.00 0.00 0.00 85 1011.8
20180817061200 67 225 0.0 0.0 0.00 0.00 0.00 83 1011.9
20180817061109 67 204 0.0 0.0 0.00 0.00 0.00 84 1011.9
20180817060908 67 225 0.0 0.0 0.00 0.00 0.00 83 1011.8
20180817060900 67 204 0.0 0.0 0.00 0.00 0.00 84 1011.9
20180817060859 67 204 0.0 0.0 0.00 0.00 0.00 84 1011.9
20180817060559 67 225 0.0 0.0 0.00 0.00 0.00 83 1011.8
20180817060258 67 225 0.0 0.0 0.00 0.00 0.00 83 1011.7
20180817055957 67 225 0.0 0.0 0.00 0.00 0.00 83 1011.9
20180817055328 67 225 0.0 1.0 0.00 0.00 0.00 83 1011.7
20180817055054 67 225 0.0 1.0 0.00 0.00 0.00 83 1011.7
20180817054753 68 225 0.0 0.0 0.00 0.00 0.00 83 1011.7
20180817054438 68 225 0.0 2.0 0.00 0.00 0.00 83 1011.7
20180817054149 68 225 0.0 2.0 0.00 0.00 0.00 83 1011.7
20180817053848 68 225 1.0 2.0 0.00 0.00 0.00 82 1011.6
20180817053747 68 225 0.0 1.0 0.00 0.00 0.00 83 1011.5
20180817053547 68 225 0.0 1.0 0.00 0.00 0.00 83 1011.5
20180817053123 68 245 1.0 1.0 0.00 0.00 0.00 82 1011.4
20180817052945 68 245 1.0 1.0 0.00 0.00 0.00 82 1011.4
20180817052645 68 234 1.0 1.0 0.00 0.00 0.00 82 1011.5
20180817052526 68 225 0.0 1.0 0.00 0.00 0.00 82 1011.6
20180817052344 68 225 0.0 1.0 0.00 0.00 0.00 82 1011.6
20180817052331 68 225 0.0 3.0 0.00 0.00 0.00 82 1011.5
20180817052041 68 225 0.0 3.0 0.00 0.00 0.00 82 1011.5
20180817051713 69 267 2.0 3.0 0.00 0.00 0.00 81 1011.4
20180817051440 69 267 2.0 3.0 0.00 0.00 0.00 81 1011.4
20180817051433 69 243 1.0 1.0 0.00 0.00 0.00 82 1011.5
20180817051138 69 243 1.0 1.0 0.00 0.00 0.00 82 1011.5
20180817050843 69 240 1.0 2.0 0.00 0.00 0.00 81 1011.5
20180817050839 69 229 1.0 2.0 0.00 0.00 0.00 81 1011.4
20180817050537 69 240 1.0 2.0 0.00 0.00 0.00 81 1011.5
20180817050210 69 254 1.0 2.0 0.00 0.00 0.00 80 1011.3
20180817045934 69 254 1.0 2.0 0.00 0.00 0.00 80 1011.3
20180817045911 69 267 1.0 2.0 0.00 0.00 0.00 80 1011.3
20180817045632 69 267 1.0 2.0 0.00 0.00 0.00 80 1011.3
20180817045608 69 229 1.0 2.0 0.00 0.00 0.00 81 1011.3
20180817045336 69 254 1.0 2.0 0.00 0.00 0.00 80 1011.4
20180817045333 69 229 1.0 2.0 0.00 0.00 0.00 81 1011.3
20180817045034 69 254 1.0 1.0 0.00 0.00 0.00 80 1011.4
20180817045030 69 254 1.0 2.0 0.00 0.00 0.00 80 1011.4
20180817044731 69 254 1.0 1.0 0.00 0.00 0.00 80 1011.4
20180817044426 70 227 0.0 1.0 0.00 0.00 0.00 79 1011.4
20180817044127 70 227 0.0 1.0 0.00 0.00 0.00 79 1011.4
20180817043827 70 240 1.0 2.0 0.00 0.00 0.00 79 1011.4
20180817043225 70 229 0.0 3.0 0.00 0.00 0.00 79 1011.3
20180817042623 70 247 1.0 4.0 0.00 0.00 0.00 79 1011.2
20180817042517 70 254 1.0 3.0 0.00 0.00 0.00 78 1011.2
20180817042321 70 254 1.0 3.0 0.00 0.00 0.00 78 1011.2
20180817041720 70 258 1.0 2.0 0.00 0.00 0.00 78 1011.2
20180817041621 70 229 1.0 1.0 0.00 0.00 0.00 78 1011.0
20180817041417 70 229 1.0 1.0 0.00 0.00 0.00 78 1011.0
20180817041346 70 238 0.0 2.0 0.00 0.00 0.00 77 1011.0
20180817041116 70 238 0.0 2.0 0.00 0.00 0.00 77 1011.0
20180817041029 71 258 1.0 2.0 0.00 0.00 0.00 77 1010.7
20180817040815 71 258 1.0 2.0 0.00 0.00 0.00 77 1010.7
20180817040516 71 238 1.0 2.0 0.00 0.00 0.00 77 1010.9
20180817040457 71 247 2.0 3.0 0.00 0.00 0.00 76 1010.7
20180817040214 71 247 2.0 3.0 0.00 0.00 0.00 76 1010.7
20180817040207 71 245 2.0 3.0 0.00 0.00 0.00 76 1010.6
20180817035913 71 245 2.0 3.0 0.00 0.00 0.00 76 1010.6
20180817035911 71 258 2.0 3.0 0.00 0.00 0.00 76 1010.7
20180817035610 71 258 2.0 3.0 0.00 0.00 0.00 76 1010.7
20180817035010 72 254 2.0 3.0 0.00 0.00 0.00 76 1011.0
20180817034709 72 242 2.0 2.0 0.00 0.00 0.00 75 1010.9
20180817034559 72 240 2.0 3.0 0.00 0.00 0.00 75 1010.9
20180817034406 72 240 2.0 3.0 0.00 0.00 0.00 75 1010.9
20180817034349 72 245 2.0 3.0 0.00 0.00 0.00 74 1010.9
20180817034106 72 245 2.0 3.0 0.00 0.00 0.00 74 1010.9
20180817034001 72 263 3.0 3.0 0.00 0.00 0.00 74 1010.8
20180817033804 72 263 3.0 3.0 0.00 0.00 0.00 74 1010.8
20180817033503 72 245 3.0 3.0 0.00 0.00 0.00 74 1010.7
20180817032902 73 258 2.0 4.0 0.00 0.00 0.00 73 1010.8
20180817032820 73 234 3.0 3.0 0.00 0.00 0.00 72 1010.7
20180817032607 73 227 1.0 2.0 0.00 0.00 0.00 72 1010.6
20180817032559 73 234 3.0 3.0 0.00 0.00 0.00 72 1010.7
20180817032259 73 227 1.0 2.0 0.00 0.00 0.00 72 1010.6
20180817031959 74 245 1.0 3.0 0.00 0.00 0.00 72 1010.6
20180817031356 74 237 2.0 3.0 0.00 0.00 0.00 71 1010.6
20180817031310 74 236 2.0 3.0 0.00 0.00 0.00 71 1010.6
20180817031058 74 236 2.0 3.0 0.00 0.00 0.00 71 1010.6
20180817030956 75 256 2.0 3.0 0.00 0.00 0.00 71 1010.5
20180817030754 75 256 2.0 3.0 0.00 0.00 0.00 71 1010.5
20180817030732 75 240 2.0 4.0 0.00 0.00 0.00 69 1010.5
20180817030454 75 256 2.0 3.0 0.00 0.00 0.00 69 1010.5
20180817030151 75 256 2.0 3.0 0.00 0.00 0.00 69 1010.5
20180817030054 75 258 1.0 2.0 0.00 0.00 0.00 68 1010.3
20180817025851 75 258 1.0 2.0 0.00 0.00 0.00 68 1010.3
20180817025836 76 270 1.0 2.0 0.00 0.00 0.00 68 1010.2
20180817025551 76 270 1.0 2.0 0.00 0.00 0.00 68 1010.2
20180817025548 76 270 1.0 2.0 0.00 0.00 0.00 68 1010.2
20180817025249 76 240 0.0 2.0 0.00 0.00 0.00 68 1010.4
20180817024948 76 236 1.0 2.0 0.00 0.00 0.00 67 1010.5
20180817024645 77 262 0.0 3.0 0.00 0.00 0.00 67 1010.5
20180817024553 77 236 2.0 3.0 0.00 0.00 0.00 66 1010.3
20180817024344 77 236 2.0 3.0 0.00 0.00 0.00 66 1010.3
20180817024044 77 263 1.0 3.0 0.00 0.00 0.00 65 1010.2
20180817023703 78 256 1.0 4.0 0.00 0.00 0.00 65 1010.2
20180817023442 78 256 1.0 4.0 0.00 0.00 0.00 65 1010.2
20180817023141 78 232 2.0 4.0 0.00 0.00 0.00 64 1010.1
20180817022841 79 245 1.0 2.0 0.00 0.00 0.00 64 1010.1
20180817022810 79 238 1.0 2.0 0.00 0.00 0.00 64 1010.1
20180817022539 79 238 1.0 2.0 0.00 0.00 0.00 64 1010.1
20180817022204 79 252 1.0 4.0 0.00 0.00 0.00 63 1010.1
20180817021935 79 252 1.0 4.0 0.00 0.00 0.00 63 1010.1
20180817021911 79 256 2.0 3.0 0.00 0.00 0.00 63 1010.0
20180817021634 79 256 2.0 3.0 0.00 0.00 0.00 63 1010.0
20180817021542 80 252 3.0 3.0 0.00 0.00 0.00 62 1010.0
20180817021333 80 252 3.0 3.0 0.00 0.00 0.00 62 1010.0
20180817021048 80 252 0.0 2.0 0.00 0.00 0.00 62 1010.1
20180817021033 80 249 3.0 3.0 0.00 0.00 0.00 62 1010.0
20180817020732 80 252 0.0 2.0 0.00 0.00 0.00 62 1010.1
20180817020715 80 236 2.0 3.0 0.00 0.00 0.00 61 1010.0
20180817020430 80 236 2.0 3.0 0.00 0.00 0.00 61 1010.0
20180817020036 81 252 2.0 4.0 0.00 0.00 0.00 61 1010.1
20180817015829 81 252 2.0 4.0 0.00 0.00 0.00 61 1010.1
20180817015453 81 254 3.0 4.0 0.00 0.00 0.00 61 1010.1
20180817015226 81 254 3.0 4.0 0.00 0.00 0.00 61 1010.1
20180817014825 81 265 4.0 5.0 0.00 0.00 0.00 60 1010.0
20180817014625 81 265 4.0 5.0 0.00 0.00 0.00 60 1010.0
20180817014525 81 258 2.0 4.0 0.00 0.00 0.00 60 1010.1
20180817014332 81 252 2.0 5.0 0.00 0.00 0.00 59 1010.1
20180817014323 81 258 2.0 4.0 0.00 0.00 0.00 60 1010.1
20180817014021 81 252 2.0 5.0 0.00 0.00 0.00 59 1010.1
20180817013721 81 256 3.0 4.0 0.00 0.00 0.00 60 1010.0
20180817013420 81 245 3.0 4.0 0.00 0.00 0.00 60 1010.0
20180817013355 81 234 0.0 5.0 0.00 0.00 0.00 60 1010.0
20180817013118 81 234 0.0 5.0 0.00 0.00 0.00 60 1010.0
20180817013027 81 256 5.0 5.0 0.00 0.00 0.00 59 1010.1
20180817012816 81 256 5.0 5.0 0.00 0.00 0.00 59 1010.1
20180817012732 82 252 3.0 5.0 0.00 0.00 0.00 59 1010.1
20180817012516 82 252 3.0 5.0 0.00 0.00 0.00 59 1010.1
20180817012511 82 263 2.0 6.0 0.00 0.00 0.00 59 1010.0
20180817012214 82 263 2.0 6.0 0.00 0.00 0.00 59 1010.0
20180817011521 82 254 5.0 6.0 0.00 0.00 0.00 58 1010.1
20180817011311 82 254 5.0 6.0 0.00 0.00 0.00 58 1010.1
20180817011302 83 205 2.0 5.0 0.00 0.00 0.00 58 1010.1
20180817011010 83 205 2.0 5.0 0.00 0.00 0.00 58 1010.1
20180817010934 83 265 2.0 7.0 0.00 0.00 0.00 58 1010.1
20180817010710 83 265 2.0 7.0 0.00 0.00 0.00 58 1010.1
20180817010620 83 261 3.0 5.0 0.00 0.00 0.00 57 1010.1
20180817010409 83 261 3.0 5.0 0.00 0.00 0.00 57 1010.1
20180817010108 84 270 4.0 4.0 0.00 0.00 0.00 56 1009.9
20180817010019 84 243 3.0 4.0 0.00 0.00 0.00 57 1010.0
20180817010015 85 249 3.0 5.0 0.00 0.00 0.00 56 1009.9
20180817005928 85 305 2.0 6.0 0.00 0.00 0.00 56 1010.0
20180817005840 85 249 3.0 5.0 0.00 0.00 0.00 56 1009.9
20180817005807 84 243 3.0 4.0 0.00 0.00 0.00 57 1010.0
20180817005750 85 249 3.0 5.0 0.00 0.00 0.00 56 1009.9
20180817005658 85 305 2.0 6.0 0.00 0.00 0.00 56 1010.0
20180817005606 85 305 2.0 6.0 0.00 0.00 0.00 56 1010.0
20180817005513 85 305 2.0 6.0 0.00 0.00 0.00 56 1010.0
20180817005504 85 249 3.0 5.0 0.00 0.00 0.00 56 1009.9
20180817005416 85 305 2.0 6.0 0.00 0.00 0.00 56 1010.0
20180817005320 85 305 2.0 6.0 0.00 0.00 0.00 56 1010.0
20180817005220 85 305 2.0 6.0 0.00 0.00 0.00 56 1010.0
20180817005205 85 234 3.0 6.0 0.00 0.00 0.00 56 1010.0
20180817005121 85 305 2.0 6.0 0.00 0.00 0.00 56 1010.0
20180817005021 85 305 2.0 6.0 0.00 0.00 0.00 56 1010.0
20180817004919 85 305 2.0 6.0 0.00 0.00 0.00 56 1010.0
20180817004903 85 243 4.0 6.0 0.00 0.00 0.00 56 1009.9
20180817004816 85 305 2.0 6.0 0.00 0.00 0.00 56 1010.0
20180817004712 85 305 2.0 6.0 0.00 0.00 0.00 56 1010.0
20180817004607 85 305 2.0 6.0 0.00 0.00 0.00 56 1010.0
20180817004459 85 305 2.0 6.0 0.00 0.00 0.00 56 1010.0
20180817004351 85 305 2.0 6.0 0.00 0.00 0.00 56 1010.0
20180817004242 85 305 2.0 6.0 0.00 0.00 0.00 56 1010.0
20180817004000 85 305 2.0 6.0 0.00 0.00 0.00 56 1010.0
20180817003658 85 240 2.0 7.0 0.00 0.00 0.00 56 1009.9
20180817003358 85 256 3.0 6.0 0.00 0.00 0.00 56 1010.0
20180817003055 85 235 4.0 6.0 0.00 0.00 0.00 55 1010.0
20180817002754 85 249 4.0 8.0 0.00 0.00 0.00 55 1009.8
20180817002453 86 258 4.0 7.0 0.00 0.00 0.00 55 1010.0
20180817002154 86 258 6.0 11.0 0.00 0.00 0.00 54 1010.1
20180817001851 86 245 5.0 6.0 0.00 0.00 0.00 55 1010.0
20180817001621 86 258 4.0 6.0 0.00 0.00 0.00 55 1009.9
20180817001550 86 258 4.0 6.0 0.00 0.00 0.00 55 1009.9
20180817001249 86 261 4.0 7.0 0.00 0.00 0.00 54 1009.9
20180817000732 86 260 5.0 9.0 0.00 0.00 0.00 54 1009.8
20180817000648 86 260 5.0 9.0 0.00 0.00 0.00 54 1009.8
20180817000046 86 252 4.0 7.0 0.00 0.00 0.00 55 1009.6
20180816235743 87 238 3.0 9.0 0.00 0.00 0.00 55 1009.7
20180816235444 87 231 3.0 7.0 0.00 0.00 0.00 54 1009.6
20180816235141 87 249 6.0 11.0 0.00 0.00 0.00 54 1009.7
20180816234842 88 267 7.0 8.0 0.00 0.00 0.00 54 1009.7
20180816234619 87 266 3.0 8.0 0.00 0.00 0.00 54 1009.7
20180816234540 87 266 3.0 8.0 0.00 0.00 0.00 54 1009.7
20180816234239 87 108 1.0 7.0 0.00 0.00 0.00 54 1009.6
20180816233938 87 230 4.0 6.0 0.00 0.00 0.00 54 1009.6
20180816233334 87 227 6.0 9.0 0.00 0.00 0.00 54 1009.6
20180816233034 87 263 9.0 9.0 0.00 0.00 0.00 54 1009.6
20180816232132 88 261 5.0 7.0 0.00 0.00 0.00 54 1009.4
20180816231829 87 243 2.0 6.0 0.00 0.00 0.00 55 1009.5
20180816231530 87 247 2.0 4.0 0.00 0.00 0.00 55 1009.6
20180816231009 86 235 5.0 9.0 0.00 0.00 0.00 55 1009.6
20180816230926 86 235 5.0 9.0 0.00 0.00 0.00 55 1009.6
20180816230325 86 245 5.0 8.0 0.00 0.00 0.00 55 1009.7
20180816225724 87 247 7.0 10.0 0.00 0.00 0.00 54 1009.8
20180816224819 87 245 6.0 9.0 0.00 0.00 0.00 53 1009.8
20180816224258 88 228 5.0 14.0 0.00 0.00 0.00 53 1010.0
20180816224216 88 228 5.0 14.0 0.00 0.00 0.00 53 1010.0
20180816223916 88 240 7.0 10.0 0.00 0.00 0.00 52 1009.9
20180816223314 89 272 10.0 10.0 0.00 0.00 0.00 53 1009.9
20180816223013 89 232 4.0 7.0 0.00 0.00 0.00 52 1009.9
20180816222712 89 254 6.0 7.0 0.00 0.00 0.00 53 1009.9
20180816222409 89 195 3.0 9.0 0.00 0.00 0.00 52 1010.0
20180816222146 89 247 9.0 12.0 0.00 0.00 0.00 53 1009.9
20180816222110 89 247 9.0 12.0 0.00 0.00 0.00 53 1009.9
20180816221842 89 267 12.0 12.0 0.00 0.00 0.00 52 1009.8
20180816221808 89 267 12.0 12.0 0.00 0.00 0.00 52 1009.8
20180816221508 89 247 5.0 9.0 0.00 0.00 0.00 53 1009.9
20180816221207 89 222 4.0 9.0 0.00 0.00 0.00 53 1009.9
20180816220934 89 225 7.0 11.0 0.00 0.00 0.00 52 1009.9
20180816220904 89 225 7.0 11.0 0.00 0.00 0.00 52 1009.9
20180816220604 89 260 4.0 11.0 0.00 0.00 0.00 52 1010.0
20180816220303 89 270 9.0 11.0 0.00 0.00 0.00 52 1009.7
20180816220002 89 261 6.0 7.0 0.00 0.00 0.00 53 1009.8
20180816215701 89 237 1.0 8.0 0.00 0.00 0.00 52 1009.8
20180816215059 89 267 4.0 8.0 0.00 0.00 0.00 52 1009.9
20180816214830 90 242 7.0 13.0 0.00 0.00 0.00 52 1010.1
20180816214756 90 242 7.0 13.0 0.00 0.00 0.00 52 1010.1
20180816214458 90 247 7.0 10.0 0.00 0.00 0.00 52 1009.9
20180816214155 90 244 10.0 10.0 0.00 0.00 0.00 52 1009.8
20180816213854 90 243 6.0 8.0 0.00 0.00 0.00 52 1009.8
20180816213552 90 252 8.0 10.0 0.00 0.00 0.00 52 1009.9
20180816213323 90 229 9.0 12.0 0.00 0.00 0.00 51 1009.8
20180816213253 90 229 9.0 12.0 0.00 0.00 0.00 51 1009.8
20180816213035 90 255 5.0 7.0 0.00 0.00 0.00 51 1009.9
20180816212949 90 255 5.0 7.0 0.00 0.00 0.00 51 1009.9
20180816212349 90 267 9.0 11.0 0.00 0.00 0.00 51 1009.8
20180816211747 90 247 9.0 10.0 0.00 0.00 0.00 51 1009.9
20180816211446 90 261 8.0 10.0 0.00 0.00 0.00 51 1009.9
20180816211143 90 270 10.0 13.0 0.00 0.00 0.00 50 1009.8
20180816210843 90 267 7.0 12.0 0.00 0.00 0.00 50 1009.9
20180816205940 91 247 7.0 11.0 0.00 0.00 0.00 49 1010.3
20180816205712 92 265 7.0 10.0 0.00 0.00 0.00 48 1010.1
20180816205637 92 265 7.0 10.0 0.00 0.00 0.00 48 1010.1
20180816205337 92 265 9.0 9.0 0.00 0.00 0.00 49 1010.1
20180816205036 92 263 5.0 8.0 0.00 0.00 0.00 49 1010.2
20180816204735 92 256 6.0 6.0 0.00 0.00 0.00 49 1010.2
20180816204434 92 270 5.0 9.0 0.00 0.00 0.00 48 1010.2
20180816203604 92 180 1.0 9.0 0.00 0.00 0.00 48 1010.1
20180816203530 92 180 1.0 9.0 0.00 0.00 0.00 48 1010.1
20180816203308 92 235 4.0 10.0 0.00 0.00 0.00 47 1010.2
20180816203230 92 235 4.0 10.0 0.00 0.00 0.00 47 1010.2
20180816202629 93 261 7.0 11.0 0.00 0.00 0.00 47 1010.2
20180816202105 93 205 5.0 6.0 0.00 0.00 0.00 48 1010.3
20180816202032 93 205 5.0 6.0 0.00 0.00 0.00 48 1010.3
20180816201724 92 235 2.0 4.0 0.00 0.00 0.00 48 1010.3
20180816201423 92 174 1.0 8.0 0.00 0.00 0.00 48 1010.5
20180816201122 92 240 4.0 10.0 0.00 0.00 0.00 48 1010.5
20180816200819 92 256 7.0 10.0 0.00 0.00 0.00 48 1010.3
20180816200518 92 263 6.0 9.0 0.00 0.00 0.00 47 1010.3
20180816195916 92 247 7.0 7.0 0.00 0.00 0.00 48 1010.4
20180816195617 92 245 6.0 6.0 0.00 0.00 0.00 48 1010.4
20180816195316 92 256 4.0 6.0 0.00 0.00 0.00 48 1010.4
20180816194743 92 247 0.0 7.0 0.00 0.00 0.00 49 1010.4
20180816194712 92 247 0.0 7.0 0.00 0.00 0.00 49 1010.4
20180816194413 92 261 4.0 4.0 0.00 0.00 0.00 49 1010.4
20180816194141 92 249 2.0 4.0 0.00 0.00 0.00 49 1010.5
20180816194110 92 249 2.0 4.0 0.00 0.00 0.00 49 1010.5
20180816193811 92 252 1.0 3.0 0.00 0.00 0.00 49 1010.5
20180816193509 92 245 0.0 4.0 0.00 0.00 0.00 49 1010.6
20180816193206 91 225 0.0 4.0 0.00 0.00 0.00 49 1010.7
20180816192303 91 263 3.0 6.0 0.00 0.00 0.00 49 1010.3
20180816192002 91 256 0.0 3.0 0.00 0.00 0.00 50 1010.4
20180816191059 91 261 0.0 3.0 0.00 0.00 0.00 50 1010.4
20180816190539 91 186 0.0 4.0 0.00 0.00 0.00 50 1010.4
20180816190458 91 186 0.0 4.0 0.00 0.00 0.00 50 1010.4
20180816185928 91 247 0.0 3.0 0.00 0.00 0.00 50 1010.6
20180816185855 91 247 0.0 3.0 0.00 0.00 0.00 50 1010.6
20180816185553 91 247 0.0 3.0 0.00 0.00 0.00 51 1010.6
20180816185254 90 193 0.0 2.0 0.00 0.00 0.00 52 1010.6
20180816184951 90 272 0.0 2.0 0.00 0.00 0.00 52 1010.6
20180816184651 89 238 2.0 2.0 0.00 0.00 0.00 52 1010.6
20180816184049 88 235 0.0 3.0 0.00 0.00 0.00 52 1010.8
20180816183749 88 256 2.0 4.0 0.00 0.00 0.00 53 1010.7
20180816183446 88 256 0.0 7.0 0.00 0.00 0.00 54 1010.7
20180816183144 88 283 7.0 7.0 0.00 0.00 0.00 54 1010.8
20180816182845 87 272 1.0 4.0 0.00 0.00 0.00 54 1010.8
20180816182542 87 252 2.0 5.0 0.00 0.00 0.00 54 1010.8
20180816182241 87 265 3.0 6.0 0.00 0.00 0.00 55 1010.8
20180816181941 86 222 2.0 6.0 0.00 0.00 0.00 55 1011.0
20180816181640 86 210 2.0 7.0 0.00 0.00 0.00 55 1010.9
20180816181338 86 222 3.0 6.0 0.00 0.00 0.00 55 1010.8
20180816181036 86 270 6.0 6.0 0.00 0.00 0.00 55 1010.8
20180816180808 86 265 3.0 7.0 0.00 0.00 0.00 56 1010.8
20180816180735 86 265 3.0 7.0 0.00 0.00 0.00 56 1010.8
20180816180135 85 238 3.0 6.0 0.00 0.00 0.00 56 1010.8
20180816175833 85 267 5.0 8.0 0.00 0.00 0.00 56 1010.7
20180816175532 85 252 3.0 7.0 0.00 0.00 0.00 56 1010.8
20180816175232 84 240 5.0 7.0 0.00 0.00 0.00 57 1010.9
20180816174629 84 270 6.0 9.0 0.00 0.00 0.00 57 1010.9
20180816174028 84 279 5.0 8.0 0.00 0.00 0.00 57 1010.9
20180816174025 84 279 5.0 8.0 0.00 0.00 0.00 57 1010.9
20180816173726 84 245 4.0 8.0 0.00 0.00 0.00 57 1011.1
20180816173423 84 270 4.0 7.0 0.00 0.00 0.00 57 1011.2
20180816173124 84 281 5.0 9.0 0.00 0.00 0.00 57 1011.1
20180816172520 84 290 6.0 9.0 0.00 0.00 0.00 57 1011.0
20180816172221 84 245 5.0 9.0 0.00 0.00 0.00 57 1011.0
20180816171919 85 279 6.0 10.0 0.00 0.00 0.00 57 1011.0
20180816171017 85 270 3.0 7.0 0.00 0.00 0.00 58 1011.0
20180816170715 85 274 5.0 7.0 0.00 0.00 0.00 58 1011.0
20180816170414 85 240 3.0 4.0 0.00 0.00 0.00 59 1011.1
20180816170145 85 231 2.0 7.0 0.00 0.00 0.00 59 1011.0
20180816170112 85 231 2.0 7.0 0.00 0.00 0.00 59 1011.0
20180816165509 85 245 3.0 4.0 0.00 0.00 0.00 59 1011.1
20180816165208 85 234 1.0 5.0 0.00 0.00 0.00 59 1011.1
20180816164908 85 240 4.0 4.0 0.00 0.00 0.00 60 1011.0
20180816163958 85 270 3.0 6.0 0.00 0.00 0.00 60 1011.1
20180816163659 85 249 3.0 6.0 0.00 0.00 0.00 60 1011.0
20180816163358 85 225 2.0 5.0 0.00 0.00 0.00 60 1011.0
20180816163055 85 237 2.0 5.0 0.00 0.00 0.00 61 1010.8
20180816162754 85 240 1.0 4.0 0.00 0.00 0.00 62 1010.8
20180816162453 85 270 3.0 3.0 0.00 0.00 0.00 63 1010.9
20180816161852 84 247 0.0 3.0 0.00 0.00 0.00 65 1010.9
20180816161550 84 216 1.0 3.0 0.00 0.00 0.00 65 1011.0
20180816161249 84 180 0.0 3.0 0.00 0.00 0.00 65 1011.2
20180816161025 83 186 0.0 3.0 0.00 0.00 0.00 66 1011.1
20180816160949 83 186 0.0 3.0 0.00 0.00 0.00 66 1011.1
20180816160151 83 205 0.0 2.0 0.00 0.00 0.00 68 1011.1
20180816160045 83 205 0.0 2.0 0.00 0.00 0.00 68 1011.1
20180816155814 82 132 2.0 2.0 0.00 0.00 0.00 69 1011.1
20180816155743 82 132 2.0 2.0 0.00 0.00 0.00 69 1011.1
20180816155516 82 213 0.0 1.0 0.00 0.00 0.00 71 1011.2
20180816155442 82 213 0.0 1.0 0.00 0.00 0.00 71 1011.2
20180816155219 81 225 0.0 0.0 0.00 0.00 0.00 72 1011.1
20180816155141 81 225 0.0 0.0 0.00 0.00 0.00 72 1011.1
20180816154912 81 225 0.0 0.0 0.00 0.00 0.00 72 1010.9
20180816154841 81 225 0.0 0.0 0.00 0.00 0.00 72 1010.9
20180816154239 80 258 0.0 1.0 0.00 0.00 0.00 74 1010.9
20180816154023 79 225 0.0 0.0 0.00 0.00 0.00 75 1010.8
20180816153938 79 225 0.0 0.0 0.00 0.00 0.00 75 1010.8
20180816153936 79 225 0.0 0.0 0.00 0.00 0.00 75 1010.8
20180816153035 78 243 0.0 0.0 0.00 0.00 0.00 78 1011.0
20180816152734 77 225 0.0 1.0 0.00 0.00 0.00 79 1010.9
20180816152433 77 225 0.0 0.0 0.00 0.00 0.00 80 1011.0
20180816151831 75 225 0.0 0.0 0.00 0.00 0.00 82 1010.8
20180816151529 75 180 0.0 1.0 0.00 0.00 0.00 83 1010.8
20180816151226 74 225 0.0 1.0 0.00 0.00 0.00 84 1010.9
20180816150710 73 225 0.0 1.0 0.00 0.00 0.00 85 1010.9
20180816150626 73 225 0.0 1.0 0.00 0.00 0.00 85 1010.9
20180816150358 72 270 1.0 2.0 0.00 0.00 0.00 85 1011.1
20180816150323 72 270 1.0 2.0 0.00 0.00 0.00 85 1011.1
20180816150023 72 249 1.0 2.0 0.00 0.00 0.00 87 1011.0
20180816145721 71 225 1.0 3.0 0.00 0.00 0.00 86 1010.8
20180816145502 71 270 2.0 3.0 0.00 0.00 0.00 87 1010.8
20180816145420 71 270 2.0 3.0 0.00 0.00 0.00 87 1010.8
20180816145121 70 265 1.0 3.0 0.00 0.00 0.00 88 1010.8
20180816144819 70 270 1.0 4.0 0.00 0.00 0.00 88 1010.9
20180816144518 70 270 4.0 4.0 0.00 0.00 0.00 88 1010.8
20180816144255 69 270 2.0 3.0 0.00 0.00 0.00 89 1010.9
20180816144217 69 270 2.0 3.0 0.00 0.00 0.00 89 1010.9
20180816143915 69 234 1.0 3.0 0.00 0.00 0.00 91 1010.8
20180816143615 68 252 1.0 3.0 0.00 0.00 0.00 91 1010.9
20180816143312 68 263 1.0 3.0 0.00 0.00 0.00 91 1010.8
20180816143013 67 265 2.0 3.0 0.00 0.00 0.00 92 1010.7
20180816142710 67 270 2.0 2.0 0.00 0.00 0.00 93 1010.8
20180816142450 66 225 0.0 0.0 0.00 0.00 0.00 93 1010.6
20180816142409 66 225 0.0 0.0 0.00 0.00 0.00 93 1010.6
20180816142142 66 225 0.0 0.0 0.00 0.00 0.00 93 1010.8
20180816142108 66 225 0.0 0.0 0.00 0.00 0.00 93 1010.8
20180816141808 65 225 0.0 0.0 0.00 0.00 0.00 93 1010.6
20180816141506 64 225 0.0 0.0 0.00 0.00 0.00 93 1010.6
20180816141204 64 180 0.0 0.0 0.00 0.00 0.00 93 1010.5
20180816140904 64 225 0.0 0.0 0.00 0.00 0.00 93 1010.7
20180816140602 63 225 0.0 1.0 0.00 0.00 0.00 93 1010.5
20180816140348 63 225 0.0 1.0 0.00 0.00 0.00 93 1010.4
20180816140302 63 225 0.0 1.0 0.00 0.00 0.00 93 1010.4
20180816140002 63 225 0.0 1.0 0.00 0.00 0.00 94 1010.4
20180816135659 62 180 1.0 1.0 0.00 0.00 0.00 94 1010.4
20180816135059 62 270 0.0 1.0 0.00 0.00 0.00 94 1010.3
20180816134757 61 270 0.0 1.0 0.00 0.00 0.00 93 1010.3
20180816134456 61 270 0.0 1.0 0.00 0.00 0.00 93 1010.0
20180816134155 61 270 0.0 1.0 0.00 0.00 0.00 93 1009.9
20180816133852 61 270 0.0 1.0 0.00 0.00 0.00 93 1010.0
20180816133551 61 225 0.0 0.0 0.00 0.00 0.00 93 1009.8
20180816133250 61 225 0.0 0.0 0.00 0.00 0.00 93 1009.9
20180816132949 61 225 0.0 0.0 0.00 0.00 0.00 93 1009.9
20180816132727 61 225 0.0 0.0 0.00 0.00 0.00 93 1009.8
20180816132648 61 225 0.0 0.0 0.00 0.00 0.00 93 1009.8
20180816132047 61 225 0.0 0.0 0.00 0.00 0.00 93 1009.6
20180816131746 61 225 0.0 0.0 0.00 0.00 0.00 92 1009.5